EW3302 Borlange SE current weather conditions

sailwx.info

Wind from 286 at 4 knots gusting 8

Air temperature 3.3° C
Dewpoint -3.3° C

Last reported at 2020-Jan-22 13:10 UTC.
Time now 2020-Jan-22 14:14 UTC

Location: N 60°30' E 015°26'.
View on Google Maps.

See reports from other nearby stations

  
Tides and Currents Weather Stations Pressure Air Temp Water Temp Dewpoint Dewpoint Depression Visibility Wind Speed Wind Dir Waves Ship Positions
date/time (UTC)wind fromknots sea level pressurealtimeterstation pressurevisibilityair tempwater tempwave heightnotes
2020-Jan-22 13:10 286 4 gusting 8 3.3
2020-Jan-22 13:00 296 3 gusting 8 3.3
2020-Jan-22 12:50 297 4 gusting 10 3.9
2020-Jan-22 12:40 291 3 gusting 11 3.9
2020-Jan-22 12:30 306 4 gusting 9 3.3
2020-Jan-22 12:20 308 2 gusting 8 3.9
2020-Jan-22 12:10 303 3 gusting 10 3.9
2020-Jan-22 12:00 313 5 gusting 11 3.9
2020-Jan-22 11:50 300 5 gusting 11 3.9
2020-Jan-22 11:40 304 4 gusting 11 3.9
2020-Jan-22 11:30 316 5 gusting 12 3.9
2020-Jan-22 11:20 301 3 gusting 14 3.9
2020-Jan-22 11:10 308 6 gusting 14 3.9
2020-Jan-22 11:00 305 7 gusting 16 3.3
2020-Jan-22 10:50 304 5 gusting 13 3.3
2020-Jan-22 10:40 289 6 gusting 12 3.3
2020-Jan-22 10:30 296 6 gusting 17 3.3
2020-Jan-22 10:20 306 5 gusting 15 3.3
2020-Jan-22 10:10 309 6 gusting 15 3.3
2020-Jan-22 10:00 305 7 gusting 18 2.8
2020-Jan-22 09:50 311 6 gusting 24 2.8
2020-Jan-22 09:40 302 8 gusting 16 2.8
2020-Jan-22 09:30 307 6 gusting 19 2.8
2020-Jan-22 09:20 310 8 gusting 16 2.8
2020-Jan-22 09:10 298 10 gusting 22 2.8
2020-Jan-22 09:00 310 11 gusting 21 2.8
2020-Jan-22 08:50 304 8 gusting 17 2.8
2020-Jan-22 08:40 300 9 gusting 19 2.8
2020-Jan-22 08:30 298 8 gusting 21 2.2
2020-Jan-22 08:20 304 8 gusting 19 2.2
2020-Jan-22 08:10 304 11 gusting 22 2.2
2020-Jan-22 08:00 303 10 gusting 22 2.2
2020-Jan-22 07:50 308 7 gusting 21 2.2
2020-Jan-22 07:40 296 9 gusting 19 2.2
2020-Jan-22 07:30 309 6 gusting 21 2.2
2020-Jan-22 07:20 319 9 gusting 25 2.2
2020-Jan-22 07:10 308 10 gusting 19 2.2
2020-Jan-22 07:00 303 8 gusting 25 2.2
2020-Jan-22 06:50 310 6 gusting 18 2.2
2020-Jan-22 06:40 284 6 gusting 22 2.2
2020-Jan-22 06:30 287 6 gusting 18 2.2
2020-Jan-22 06:20 294 6 gusting 15 1.7
2020-Jan-22 06:10 290 8 gusting 17 2.2
2020-Jan-22 06:00 286 9 gusting 25 2.2
2020-Jan-22 05:50 284 8 gusting 17 1.7
2020-Jan-22 05:40 284 6 gusting 19 2.2
2020-Jan-22 05:30 287 7 gusting 16 2.2
2020-Jan-22 05:20 283 7 gusting 17 2.2
2020-Jan-22 05:10 285 9 gusting 19 2.2
2020-Jan-22 05:00 285 8 gusting 19 2.2
2020-Jan-22 04:50 283 8 gusting 18 2.2
2020-Jan-22 04:40 293 6 gusting 19 2.2
2020-Jan-22 04:30 288 7 gusting 19 2.2
2020-Jan-22 04:20 278 8 gusting 19 2.2
2020-Jan-22 04:10 276 10 gusting 18 2.2
2020-Jan-22 04:00 276 6 gusting 14 1.7
2020-Jan-22 03:50 272 6 gusting 14 1.7
2020-Jan-22 03:40 278 6 gusting 17 1.7
2020-Jan-22 03:30 282 5 gusting 15 1.7
2020-Jan-22 03:20 276 7 gusting 13 1.7
2020-Jan-22 03:10 279 6 gusting 13 1.7
2020-Jan-22 03:00 280 7 gusting 14 2.2
2020-Jan-22 02:50 281 6 gusting 15 2.2
2020-Jan-22 02:40 286 6 gusting 17 2.2
2020-Jan-22 02:30 282 6 gusting 16 2.2
2020-Jan-22 02:20 275 6 gusting 14 2.2
2020-Jan-22 02:10 291 4 gusting 12 2.2
2020-Jan-22 02:00 279 6 gusting 13 2.2
2020-Jan-22 01:50 272 6 gusting 16 2.2
2020-Jan-22 01:40 283 6 gusting 13 2.2
2020-Jan-22 01:30 278 7 gusting 14 2.8
2020-Jan-22 01:20 271 6 gusting 14 2.8
2020-Jan-22 01:10 270 6 gusting 13 2.8
2020-Jan-22 01:00 268 6 gusting 11 2.8
2020-Jan-22 00:50 277 5 gusting 13 2.8
2020-Jan-22 00:40 272 7 gusting 13 3.3
2020-Jan-22 00:30 273 6 gusting 16 3.3
2020-Jan-22 00:20 271 4 gusting 12 3.3
2020-Jan-22 00:10 270 6 gusting 15 3.3
2020-Jan-22 00:00 270 5 gusting 11 3.3
2020-Jan-21 23:50 260 5 gusting 13 3.3
2020-Jan-21 23:40 264 5 gusting 12 3.3
2020-Jan-21 23:30 269 6 gusting 13 3.3
2020-Jan-21 23:20 250 4 gusting 13 3.3
2020-Jan-21 23:10 270 6 gusting 15 3.9
2020-Jan-21 23:00 268 6 gusting 14 3.9
2020-Jan-21 22:50 269 5 gusting 16 3.9
2020-Jan-21 22:40 251 6 gusting 19 3.9
2020-Jan-21 22:30 243 8 gusting 18 3.9
2020-Jan-21 22:20 245 7 gusting 17 3.9
2020-Jan-21 22:10 246 6 gusting 18 3.3
2020-Jan-21 22:00 247 6 gusting 12 3.3
2020-Jan-21 21:50 232 4 gusting 16 3.3
2020-Jan-21 21:40 254 2 gusting 9 3.3
2020-Jan-21 21:30 250 6 gusting 19 3.9
2020-Jan-21 21:20 253 7 gusting 13 3.9
2020-Jan-21 21:10 246 5 gusting 14 3.3
2020-Jan-21 21:00 241 7 gusting 17 3.3
2020-Jan-21 20:50 226 6 gusting 13 3.3
2020-Jan-21 20:40 231 6 gusting 11 3.3
2020-Jan-21 20:30 229 6 gusting 14 3.3
2020-Jan-21 20:20 240 6 gusting 12 3.9
2020-Jan-21 20:10 244 6 gusting 13 3.9
2020-Jan-21 20:00 243 5 gusting 14 3.9
2020-Jan-21 19:50 239 4 gusting 10 3.9
2020-Jan-21 19:40 247 6 gusting 13 4.4
2020-Jan-21 19:30 245 6 gusting 15 4.4
2020-Jan-21 19:20 236 6 gusting 18 3.9
2020-Jan-21 19:10 240 6 gusting 16 3.9
2020-Jan-21 19:00 239 6 gusting 16 3.9
2020-Jan-21 18:50 237 7 gusting 17 3.9
2020-Jan-21 18:40 241 8 gusting 15 3.9
2020-Jan-21 18:30 241 6 gusting 10 3.3
2020-Jan-21 18:20 232 5 gusting 10 3.3
2020-Jan-21 18:10 245 7 gusting 13 3.9
2020-Jan-21 18:00 244 7 gusting 12 3.9
2020-Jan-21 17:50 243 6 gusting 13 3.9
2020-Jan-21 17:40 247 5 gusting 10 3.3
2020-Jan-21 17:30 236 5 gusting 12 3.3
2020-Jan-21 17:20 235 5 gusting 12 3.9
2020-Jan-21 17:10 236 6 gusting 17 3.9
2020-Jan-21 17:00 241 6 gusting 13 3.9
2020-Jan-21 16:50 244 6 gusting 13 3.9
2020-Jan-21 16:40 247 5 gusting 11 3.9
2020-Jan-21 16:30 244 6 gusting 15 3.9
2020-Jan-21 16:20 246 6 gusting 14 3.9
2020-Jan-21 16:10 240 7 gusting 15 3.3
2020-Jan-21 16:00 242 6 gusting 13 3.9
2020-Jan-21 15:50 237 6 gusting 12 3.9
2020-Jan-21 15:40 247 4 gusting 12 3.9
2020-Jan-21 15:30 238 5 gusting 12 3.9
2020-Jan-21 15:20 237 5 gusting 9 4.4
2020-Jan-21 15:10 251 5 gusting 13 4.4
2020-Jan-21 15:00 245 4 gusting 8 4.4
2020-Jan-21 14:50 248 3 gusting 10 4.4
2020-Jan-21 14:40 260 4 gusting 12 4.4
2020-Jan-21 14:30 264 2 gusting 13 4.4
2020-Jan-21 14:20 252 4 gusting 9 4.4
2020-Jan-21 14:10 256 3 gusting 11 4.4
2020-Jan-21 14:00 250 4 gusting 11 4.4
2020-Jan-21 13:50 260 6 gusting 13 5.0
2020-Jan-21 13:40 263 6 gusting 20 5.0
2020-Jan-21 13:30 263 5 gusting 11 5.0
2020-Jan-21 13:20 271 4 gusting 10 5.0
2020-Jan-21 13:10 269 4 gusting 10 5.0
2020-Jan-21 13:00 253 6 gusting 13 5.0
2020-Jan-21 12:50 257 4 gusting 13 5.0
2020-Jan-21 12:40 274 6 gusting 13 5.0
2020-Jan-21 12:30 272 6 gusting 15 5.6
2020-Jan-21 12:20 275 6 gusting 13 5.6
2020-Jan-21 12:10 277 5 gusting 13 5.6
2020-Jan-21 12:00 272 4 gusting 11 5.6
2020-Jan-21 11:50 272 3 gusting 11 5.6
2020-Jan-21 11:40 267 3 gusting 10 5.6
2020-Jan-21 11:30 254 3 gusting 8 5.6
2020-Jan-21 11:20 263 2 gusting 6 5.6
2020-Jan-21 11:10 251 2 gusting 6 5.6
2020-Jan-21 11:00 175 5.0
2020-Jan-21 10:50 037 4.4
2020-Jan-21 10:40 359 4.4
2020-Jan-21 10:30 323 4.4
2020-Jan-21 10:20 283 3 gusting 7 4.4
2020-Jan-21 10:10 285 3 gusting 6 4.4
2020-Jan-21 10:00 275 3 gusting 8 4.4
2020-Jan-21 09:50 279 2 gusting 6 3.9
2020-Jan-21 09:40 279 0 gusting 4 3.9
2020-Jan-21 09:30 313 1 gusting 6 3.9
2020-Jan-21 09:20 252 2 gusting 6 3.9
2020-Jan-21 09:10 257 1 gusting 5 3.9
2020-Jan-21 09:00 258 1 gusting 4 3.3
2020-Jan-21 08:50 309 1 gusting 6 3.3
2020-Jan-21 08:40 303 0 gusting 5 3.9
2020-Jan-21 08:30 282 2 gusting 6 3.9
2020-Jan-21 08:20 281 2 gusting 6 3.9
2020-Jan-21 08:10 280 1 gusting 6 4.4
2020-Jan-21 08:00 285 1 gusting 7 4.4
2020-Jan-21 07:50 291 3 gusting 6 4.4
2020-Jan-21 07:40 279 3 gusting 9 4.4
2020-Jan-21 07:30 276 2 gusting 6 4.4
2020-Jan-21 07:20 276 3 gusting 9 4.4
2020-Jan-21 07:10 291 2 gusting 8 5.0
2020-Jan-21 07:00 310 5 gusting 9 5.0
2020-Jan-21 06:50 306 5 gusting 13 5.6
2020-Jan-21 06:40 326 6 gusting 14 6.1
2020-Jan-21 06:30 302 6 gusting 17 6.7
2020-Jan-21 06:20 304 3 gusting 8 6.7
2020-Jan-21 06:10 277 5 gusting 10 6.7
2020-Jan-21 06:00 285 5 gusting 11 7.2
2020-Jan-21 05:50 279 6 gusting 13 7.2
2020-Jan-21 05:40 281 6 gusting 14 7.2
2020-Jan-21 05:30 288 4 gusting 11 7.2
2020-Jan-21 05:20 282 4 gusting 13 7.8
2020-Jan-21 05:10 271 6 gusting 14 7.8
2020-Jan-21 05:00 267 6 gusting 13 7.8
2020-Jan-21 04:50 267 5 gusting 13 7.8
2020-Jan-21 04:40 259 3 gusting 15 7.8
2020-Jan-21 04:30 247 5 gusting 13 7.8
2020-Jan-21 04:20 266 6 gusting 16 7.8
2020-Jan-21 04:10 248 8 gusting 17 7.8
2020-Jan-21 04:00 244 5 gusting 16 7.8
2020-Jan-21 03:50 240 9 gusting 14 7.8
2020-Jan-21 03:40 241 6 gusting 14 8.3
2020-Jan-21 03:30 244 6 gusting 17 8.3
2020-Jan-21 03:20 244 6 gusting 15 8.3
2020-Jan-21 03:10 256 5 gusting 17 8.3
2020-Jan-21 03:00 250 5 gusting 13 8.3
2020-Jan-21 02:50 242 6 gusting 16 8.3
2020-Jan-21 02:40 244 6 gusting 14 8.3
2020-Jan-21 02:30 250 6 gusting 14 8.3
2020-Jan-21 02:20 250 6 gusting 15 8.9
2020-Jan-21 02:10 256 6 gusting 15 8.9
2020-Jan-21 02:00 251 9 gusting 19 8.9
2020-Jan-21 01:50 247 10 gusting 22 8.9
2020-Jan-21 01:40 246 13 gusting 26 8.9
2020-Jan-21 01:30 248 10 gusting 18 8.9
2020-Jan-21 01:20 247 11 gusting 24 8.9
2020-Jan-21 01:10 239 12 gusting 32 8.9
2020-Jan-21 01:00 240 11 gusting 27 8.9
2020-Jan-21 00:50 235 13 gusting 23 8.9
2020-Jan-21 00:40 238 12 gusting 26 9.4
2020-Jan-21 00:30 243 11 gusting 23 9.4
2020-Jan-21 00:20 246 9 gusting 21 9.4
2020-Jan-21 00:10 251 6 gusting 17 9.4
2020-Jan-21 00:00 251 6 gusting 18 9.4
2020-Jan-20 23:50 249 6 gusting 13 9.4
2020-Jan-20 23:40 241 6 gusting 20 9.4
2020-Jan-20 23:30 254 4 gusting 14 8.9
2020-Jan-20 23:20 229 4 gusting 15 8.9
2020-Jan-20 23:10 229 6 gusting 18 8.3
2020-Jan-20 23:00 235 6 gusting 16 8.9
2020-Jan-20 22:50 233 5 gusting 14 8.3
2020-Jan-20 22:40 233 3 gusting 11 7.8
2020-Jan-20 22:30 220 3 gusting 12 6.7
2020-Jan-20 22:20 114 3 gusting 9 6.7
2020-Jan-20 22:10 044 0 gusting 6 7.8
2020-Jan-20 22:00 204 6 gusting 15 7.8
2020-Jan-20 21:50 187 2 gusting 13 7.2
2020-Jan-20 21:40 165 3 gusting 9 7.2
2020-Jan-20 21:30 163 2 gusting 6 7.8
2020-Jan-20 21:20 228 1 gusting 6 8.3
2020-Jan-20 21:10 214 3 gusting 12 8.3
2020-Jan-20 21:00 222 4 gusting 12 8.3
2020-Jan-20 20:50 246 4 gusting 20 8.3
2020-Jan-20 20:40 232 6 gusting 14 8.3
2020-Jan-20 20:30 226 6 gusting 16 8.9
2020-Jan-20 20:20 227 6 gusting 14 8.9
2020-Jan-20 20:10 217 6 gusting 14 8.9
2020-Jan-20 20:00 221 8 gusting 20 8.9
2020-Jan-20 19:50 215 9 gusting 19 8.9
2020-Jan-20 19:40 218 6 gusting 16 8.3
2020-Jan-20 19:30 209 7 gusting 16 7.8
2020-Jan-20 19:20 150 4 gusting 8 7.2
2020-Jan-20 19:10 138 5 gusting 9 7.8
2020-Jan-20 19:00 225 6 gusting 15 8.3
2020-Jan-20 18:50 243 6 gusting 18 8.3
2020-Jan-20 18:40 255 4 gusting 11 7.8
2020-Jan-20 18:30 273 3 gusting 10 7.8
2020-Jan-20 18:20 257 5 gusting 13 7.8
2020-Jan-20 18:10 251 5 gusting 12 7.2
2020-Jan-20 18:00 267 2 gusting 7 7.2
2020-Jan-20 17:50 261 2 gusting 11 7.2
2020-Jan-20 17:40 243 4 gusting 9 6.1
2020-Jan-20 17:30 220 2 gusting 6 5.6
2020-Jan-20 17:20 264 5.6
2020-Jan-20 17:10 219 2 gusting 6 5.6
2020-Jan-20 17:00 219 4 gusting 7 5.6
2020-Jan-20 16:50 237 3 gusting 8 6.7
2020-Jan-20 16:30 266 3 gusting 9 6.1
2020-Jan-20 16:20 264 2 gusting 6 6.1
2020-Jan-20 16:10 261 3 gusting 10 6.1
2020-Jan-20 16:00 260 2 gusting 7 5.6
2020-Jan-20 15:50 249 1 gusting 11 5.6
2020-Jan-20 15:40 224 3 gusting 6 5.0
2020-Jan-20 15:30 223 4 gusting 7 5.0
2020-Jan-20 15:20 244 3 gusting 7 5.6
2020-Jan-20 15:10 233 3 gusting 6 5.6
2020-Jan-20 15:00 232 3 gusting 8 5.6
2020-Jan-20 14:50 247 3 gusting 9 6.1
2020-Jan-20 14:40 233 4 gusting 9 6.1
2020-Jan-20 14:30 246 4 gusting 10 6.1
2020-Jan-20 14:20 246 4 gusting 13 6.1
2020-Jan-20 14:10 246 6 gusting 13 6.1
2020-Jan-20 14:00 223 3 gusting 8 6.1